"2022-08-20 00:01:00",3076965,0.5699999,152.8,2.71279,0.06531974,0.66,0,0.7120001,138.3342,2.270117,0.0654421,0.85,0,-999,0,18.3,97.1,18.39,18.35,0.2,0,0,19.28,13.26,0.2,101.6203,3.182,3.183,3.182,100,0,0,0,204.4,38.14,38.11
"2022-08-20 00:02:00",3076966,0.7733333,151.7335,2.04809,0.06278711,0.87,0,0.8986666,136.5334,2.155985,0.03685407,0.95,0,-999,0,18.3,97.5,18.41,18.39,0.2,0,0,19.28,13.26,0.2,101.6228,3.182,3.182,3.18,100,0,0.02,0.021,204.5,38.15,38.12
"2022-08-20 00:03:00",3076967,0.9673332,150.5333,1.627615,0.06339995,1.06,0,0.8626665,129.1327,4.240188,0.04202645,0.93,0,-999,0,18.31,97.8,18.44,18.41,0.2,0,0,19.28,13.26,0.2,101.6186,3.18,3.182,3.18,100,0,0,0,204.5,38.14,38.13
"2022-08-20 00:04:00",3076968,1.056667,148.0002,3.203869,0.05015532,1.14,0,0.7386668,121.7354,4.387304,0.05643482,0.81,0,-999,0,18.37,98.2,18.47,18.43,0.2,0,0,19.28,13.26,0.2,101.6206,3.179,3.18,3.178,100,0,0.02,0.02,204.5,38.14,38.13
"2022-08-20 00:05:00",3076969,0.976,147.0692,5.011817,0.06955095,1.07,0,0.646,123.6659,5.925786,0.101771,0.84,0,-999,0,18.39,98.4,18.47,18.43,0.2,0,0,19.31,13.25,0.2,101.619,3.178,3.179,3.176,100,0,0,0,204.5,38.14,38.14
"2022-08-20 00:06:00",3076970,0.9226667,146.8745,5.257667,0.05234076,1.01,0,0.6086667,121.0141,8.332585,0.07588296,0.77,0,-999,0,18.39,98.5,18.47,18.43,0.2,0,0,19.31,13.26,0.2,101.6183,3.178,3.179,3.176,100,0,0,0,204.5,38.15,38.14
"2022-08-20 00:07:00",3076971,0.8713333,148.2644,4.84948,0.08436955,1.02,0,0.416,119.9248,7.482353,0.06354002,0.54,0,-999,0,18.39,98.3,18.46,18.42,0.2,0,0,19.31,13.25,0.2,101.6202,3.176,3.178,3.176,100,0,0,0,204.5,38.14,38.14
"2022-08-20 00:08:00",3076972,0.6533334,138.1461,6.423253,0.07030094,0.76,0,0.3686666,98.40844,6.506388,0.04883532,0.45,0,-999,0,18.4,98,18.47,18.44,0.2,0,0,19.32,13.24,0.2,101.6221,3.176,3.178,3.174,100,0,0,0,204.5,38.15,38.14
"2022-08-20 00:09:00",3076973,0.5313333,139.5688,7.476336,0.04773074,0.59,0,0.582,78.86115,4.076473,0.141525,0.86,0,-999,0,18.4,97.7,18.47,18.42,0.2,0,0,19.34,13.26,0.2,101.618,3.177,3.178,3.176,100,0,0,0,204.5,38.14,38.14
"2022-08-20 00:10:00",3076974,0.428,153.1466,10.33526,0.06305552,0.51,0,0.7906666,81.73264,3.640985,0.06265958,0.89,0,-999,0,18.39,97.6,18.47,18.42,0.2,0,0,19.34,13.25,0.2,101.6193,3.176,3.178,3.176,100,0,0,0,204.5,38.14,38.14
"2022-08-20 00:11:00",3076975,0.292,157.1308,7.177699,0.03102687,0.34,0,0.68,91.39754,4.481962,0.05189734,0.76,0,-999,0,18.4,97.6,18.5,18.43,0.2,0,0,19.34,13.25,0.2,101.6162,3.176,3.178,3.176,100,0,0,0,204.5,38.14,38.14
"2022-08-20 00:12:00",3076976,0.2626667,163.6668,6.454545,0.0259401,0.31,0,0.616,100.667,2.624411,0.04393936,0.68,0,-999,0,18.4,97.6,18.5,18.43,0.2,0,0,19.34,13.25,0.2,101.613,3.173,3.178,3.173,100,0,0,0,204.5,38.14,38.14
"2022-08-20 00:13:00",3076977,0.3066667,169.3261,8.700113,0.0396092,0.37,0,0.668,105.9311,4.752989,0.02970971,0.72,0,-999,0,18.4,97.7,18.5,18.44,0.2,0,0,19.34,13.25,0.2,101.6159,3.173,3.176,3.173,100,0,0,0,204.5,38.15,38.14
"2022-08-20 00:14:00",3076978,0.44,176.6033,10.35552,0.04,0.52,0,0.6720001,117.3334,4.18927,0.0337046,0.72,0,-999,0,18.4,97.7,18.5,18.47,0.2,0,0,19.34,13.25,0.2,101.6154,3.173,3.174,3.173,100,0,0,0,204.5,38.14,38.14
"2022-08-20 00:15:00",3076979,0.4826666,180.7353,7.685258,0.04138707,0.56,0,0.6553333,126.1999,2.103752,0.03116978,0.71,0,-999,0,18.4,97.6,18.51,18.49,0.2,0,0,19.34,13.26,0.2,101.6144,3.173,3.174,3.172,100,0,0,0,204.5,38.15,38.14
"2022-08-20 00:16:00",3076980,0.5286667,185.1314,5.652595,0.02777689,0.58,0,0.634,132.5333,2.729284,0.01925271,0.66,0,-999,0,18.4,97.7,18.53,18.5,0.2,0,0,19.34,13.26,0.2,101.6123,3.173,3.173,3.171,100,0,0,0,204.5,38.15,38.14
"2022-08-20 00:17:00",3076981,0.5753334,170.8684,5.238458,0.03809928,0.63,0,0.5366667,134.1331,2.917958,0.05424225,0.63,0,-999,0,18.4,97.9,18.54,18.5,0.2,0,0,19.34,13.26,0.2,101.6068,3.173,3.173,3.171,100,0,0,0,204.5,38.15,38.14
"2022-08-20 00:18:00",3076982,0.5013333,163.4633,3.64664,0.05239169,0.56,0,0.3713334,136.6031,4.33148,0.06097723,0.45,0,-999,0,18.4,97.9,18.52,18.49,0.2,0,0,19.35,13.26,0.2,101.6086,3.171,3.173,3.171,100,0,0,0,204.5,38.16,38.14
"2022-08-20 00:19:00",3076983,0.4639999,185.465,9.06538,0.07709734,0.63,0,0.2893333,137.9327,3.93909,0.04508757,0.4,0,-999,0,18.4,97.9,18.5,18.49,0.2,0,0,19.36,13.26,0.2,101.611,3.171,3.173,3.171,100,0,0,0,204.5,38.15,38.14
"2022-08-20 00:20:00",3076984,0.3826666,181.9979,5.782726,0.06677989,0.47,0,0.372,130.6004,4.908907,0.07006664,0.46,0,-999,0,18.4,97.6,18.5,18.46,0.2,0,0,19.36,13.26,0.2,101.6092,3.174,3.174,3.17,100,0,0,0,204.5,38.16,38.15
"2022-08-20 00:21:00",3076985,0.428,180.6482,7.212352,0.02427619,0.47,0,0.3146667,124.5952,5.825191,0.03138294,0.39,0,-999,0,18.4,97.4,18.49,18.44,0.2,0,0,19.36,13.26,0.2,101.6124,3.172,3.176,3.172,100,0,0,0,204.5,38.15,38.15
"2022-08-20 00:22:00",3076986,0.3906667,197.6785,8.220941,0.03940671,0.46,0,0.2966667,120.0663,3.021306,0.01920648,0.33,0,-999,0,18.4,97.4,18.49,18.44,0.2,0,0,19.36,13.26,0.2,101.6113,3.171,3.173,3.171,100,0,0,0,204.5,38.16,38.15
"2022-08-20 00:23:00",3076987,0.316,197.9339,4.595517,0.03158059,0.38,0,0.318,118.4,3.178797,0.01904381,0.35,0,-999,0,18.4,97.5,18.49,18.44,0.2,0,0,19.36,13.26,0.2,101.6124,3.17,3.171,3.169,100,0,0,0,204.5,38.16,38.16
"2022-08-20 00:24:00",3076988,0.2993333,183.7816,7.707377,0.02862788,0.37,0,0.3693333,115.8675,2.824775,0.02015495,0.4,0,-999,0,18.4,97.5,18.49,18.44,0.2,0,0,19.36,13.26,0.2,101.6113,3.171,3.171,3.169,100,0,0,0,204.5,38.16,38.16
"2022-08-20 00:25:00",3076989,0.27,173.4644,3.53647,0.01414214,0.29,0,0.3393334,112.6673,3.025424,0.02619585,0.38,0,-999,0,18.4,97.6,18.49,18.44,0.2,0,0,19.37,13.27,0.2,101.6127,3.169,3.171,3.169,100,0,0,0,204.5,38.16,38.16
"2022-08-20 00:26:00",3076990,0.224,159.887,9.063254,0.02059126,0.26,0,0.2613333,92.08985,9.460677,0.02028683,0.29,0,-999,0,18.4,97.6,18.5,18.44,0.2,0,0,19.37,13.26,0.2,101.6174,3.169,3.17,3.169,100,0,0,0,204.5,38.16,38.16
"2022-08-20 00:27:00",3076991,0.2126667,144.9789,7.564133,0.0254209,0.27,0,0.2326667,36.40934,20.54933,0.0304339,0.29,0,-999,0,18.4,97.5,18.5,18.45,0.2,0,0,19.38,13.26,0.2,101.6223,3.169,3.169,3.168,100,0,0,0,204.5,38.16,38.16
"2022-08-20 00:28:00",3076992,0.22,131.4053,9.352077,0.03141125,0.27,0,0.2873333,7.460445,5.349834,0.02839406,0.33,0,-999,0,18.4,97.2,18.47,18.43,0.2,0,0,19.38,13.26,0.2,101.6211,3.168,3.169,3.167,100,0,0,0,204.5,38.16,38.16
"2022-08-20 00:29:00",3076993,0.1966667,124.3333,6.105235,0.03806427,0.28,0,0.318,12.33295,4.188824,0.02925748,0.37,0,-999,0,18.4,97.2,18.47,18.43,0.2,0,0,19.38,13.25,0.2,101.6196,3.167,3.169,3.167,100,0,0,0,204.5,38.16,38.16
"2022-08-20 00:30:00",3076994,0.1826667,118.641,9.584371,0.03604934,0.26,0,0.3046666,23.80514,5.267076,0.01203698,0.33,0,-999,0,18.4,97.1,18.47,18.43,0.2,0,0,19.38,13.26,0.2,101.6207,3.168,3.168,3.166,100,0,0,0,204.5,38.16,38.16
"2022-08-20 00:31:00",3076995,0.25,121.8741,9.796499,0.02394438,0.31,0,0.2866667,45.06811,7.669339,0.03069564,0.33,0,-999,0,18.4,97.1,18.46,18.43,0.2,0,0,19.39,13.26,0.2,101.623,3.169,3.169,3.166,100,0,0,0,204.5,38.16,38.16
"2022-08-20 00:32:00",3076996,0.2986666,123.4676,8.530957,0.04177189,0.36,0,0.2799999,54.29119,6.289042,0.02633122,0.34,0,-999,0,18.4,97.2,18.46,18.43,0.2,0,0,19.39,13.26,0.2,101.6194,3.167,3.169,3.167,100,0,0,0,204.5,38.16,38.16
"2022-08-20 00:33:00",3076997,0.3793333,118.4002,3.911531,0.02885981,0.43,0,0.3186666,47.06704,3.108089,0.04349202,0.39,0,-999,0,18.4,97.4,18.4,18.4,0.2,0,0,19.39,13.26,0.2,101.6204,3.167,3.169,3.167,100,0,0,0,204.5,38.16,38.16
"2022-08-20 00:34:00",3076998,0.4806667,118.5993,4.300935,0.03923718,0.54,0,0.422,52.66683,1.349756,0.0216641,0.45,0,-999,0,18.36,97.4,18.4,18.39,0.2,0,0,19.39,13.25,0.2,101.6168,3.167,3.167,3.166,100,0,0,0,204.5,38.16,38.16
"2022-08-20 00:35:00",3076999,0.5373333,115.266,5.104761,0.02669997,0.59,0,0.44,60.00023,2.780682,0.0121106,0.46,0,-999,0,18.37,97.4,18.4,18.39,0.2,0,0,19.39,13.25,0.2,101.618,3.167,3.167,3.166,100,0,0,0,204.5,38.16,38.16
"2022-08-20 00:36:00",3077000,0.5239999,121.6683,3.943374,0.03136878,0.6,0,0.4106666,63.46658,1.454465,0.01948219,0.45,0,-999,0,18.4,97.5,18.41,18.38,0.2,0,0,19.39,13.26,0.2,101.6136,3.167,3.168,3.167,100,0,0,0,204.5,38.16,38.16
"2022-08-20 00:37:00",3077001,0.438,131.5307,5.225777,0.03655133,0.47,0,0.404,74.80211,5.391693,0.02776088,0.45,0,-999,0,18.4,97.6,18.45,18.41,0.2,0,0,19.4,13.26,0.2,101.6155,3.167,3.169,3.167,100,0,0,0,204.5,38.16,38.16
"2022-08-20 00:38:00",3077002,0.4086667,130.2066,4.992994,0.02729265,0.45,0,0.35,83.86787,4.332864,0.02097617,0.39,0,-999,0,18.4,97.6,18.47,18.43,0.2,0,0,19.41,13.25,0.2,101.6127,3.167,3.167,3.166,100,0,0,0,204.5,38.16,38.16
"2022-08-20 00:39:00",3077003,0.428,138.6058,5.46034,0.02427619,0.46,0,0.372,96.26987,4.448511,0.01939072,0.41,0,-999,0,18.4,97.7,18.47,18.43,0.2,0,0,19.42,13.26,0.2,101.616,3.167,3.169,3.166,100,0,0,0,204.5,38.16,38.16
"2022-08-20 00:40:00",3077004,0.452,139.6015,2.915774,0.0183303,0.48,0,0.3693333,107.8583,6.116119,0.03086889,0.41,0,-999,0,18.4,97.6,18.47,18.43,0.2,0,0,19.42,13.26,0.2,101.6136,3.167,3.169,3.167,100,0,0,0,204.5,38.16,38.16
"2022-08-20 00:41:00",3077005,0.5553333,140.4668,1.627435,0.03403267,0.62,0,0.3373334,124.0678,4.639521,0.02694851,0.39,0,-999,0,18.4,97.5,18.49,18.44,0.2,0,0,19.42,13.25,0.2,101.6162,3.166,3.167,3.165,100,0,0,0,204.5,38.17,38.16
"2022-08-20 00:42:00",3077006,0.5573333,143.5945,4.628299,0.05259489,0.66,0,0.3586667,131.2769,5.500277,0.05438954,0.44,0,-999,0,18.4,97.6,18.5,18.46,0.2,0,0,19.42,13.26,0.2,101.6137,3.167,3.167,3.166,100,0,0,0,204.5,38.17,38.16
"2022-08-20 00:43:00",3077007,0.54,149.9315,4.624644,0.01366261,0.56,0,0.364,140.5999,3.362092,0.04990657,0.47,0,-999,0,18.4,97.8,18.51,18.48,0.2,0,0,19.44,13.27,0.2,101.6194,3.166,3.167,3.166,100,0,0,0,204.5,38.17,38.16
"2022-08-20 00:44:00",3077008,0.4926666,152.7315,3.433992,0.03375731,0.55,0,0.2353334,142.4635,5.261223,0.04631294,0.31,0,-999,0,18.4,97.9,18.51,18.48,0.2,0,0,19.44,13.26,0.2,101.6211,3.165,3.167,3.165,100,0,0,0,204.5,38.17,38.16
"2022-08-20 00:45:00",3077009,0.424,161.8672,3.116248,0.02727636,0.47,0,0.1666667,155.5129,8.051788,0.02624669,0.21,0,-999,0,18.4,97.9,18.51,18.49,0.2,0,0,19.44,13.26,0.2,101.62,3.165,3.166,3.165,100,0,0,0,204.5,38.17,38.16
"2022-08-20 00:46:00",3077010,0.3213333,168.0029,6.260486,0.0338362,0.41,0,0.126,199.0576,31.63,0.04160128,0.2,0,-999,0,18.4,97.8,18.51,18.49,0.2,0,0,19.44,13.26,0.2,101.621,3.166,3.166,3.165,100,0,0,0,204.5,38.17,38.16
"2022-08-20 00:47:00",3077011,0.2433333,179.9934,9.008469,0.02521023,0.29,0,0.1646667,270.7974,12.02443,0.02777689,0.23,0,-999,0,18.4,97.5,18.51,18.5,0.2,0,0,19.44,13.26,0.2,101.6231,3.165,3.166,3.164,100,0,0.03,0.03,204.5,38.17,38.17
"2022-08-20 00:48:00",3077012,0.152,202.722,12.01465,0.0256125,0.2,0,0.2133333,308.5096,12.21715,0.04221637,0.28,0,-999,0,18.4,97.2,18.51,18.49,0.2,0,0,19.45,13.26,0.2,101.6239,3.164,3.165,3.163,100,0,0,0,204.5,38.17,38.17
"2022-08-20 00:49:00",3077013,0.05266667,242.4976,35.94752,0.02719477,0.1,0,0.32,320.1376,5.724614,0.0491257,0.4,0,-999,0,18.4,97.2,18.51,18.46,0.2,0,0,19.46,13.26,0.2,101.6206,3.163,3.165,3.163,100,0,0,0,204.5,38.17,38.17
"2022-08-20 00:50:00",3077014,0.164,244.9985,7.332924,0.04513683,0.22,0,0.37,305.7326,4.185728,0.03777124,0.44,0,-999,0,18.4,97.5,18.51,18.49,0.2,0,0,19.47,13.25,0.2,101.6216,3.163,3.163,3.161,100,0,0,0,204.5,38.17,38.17
"2022-08-20 00:51:00",3077015,0.256,240.0878,9.592695,0.0309408,0.3,0,0.3953333,314.1448,7.195899,0.03964286,0.47,0,-999,0,18.4,97.8,18.55,18.5,0.2,0,0,19.47,13.26,0.2,101.6246,3.162,3.163,3.161,100,0,0,0,204.5,38.17,38.17
"2022-08-20 00:52:00",3077016,0.172,230.1833,8.855714,0.03833188,0.25,0,0.28,323.8511,7.468456,0.0776316,0.43,0,-999,0,18.4,97.8,18.55,18.5,0.2,0,0,19.49,13.26,0.2,101.6215,3.162,3.163,3.161,100,0,0,0,204.5,38.17,38.17
"2022-08-20 00:53:00",3077017,0.07333334,173.1298,37.4655,0.02054805,0.11,0,0.238,3.563974,10.52281,0.02587147,0.29,0,-999,0,18.4,97.9,18.5,18.49,0.2,0,0,19.49,13.25,0.2,101.6244,3.161,3.163,3.161,100,0,0,0,204.5,38.18,38.17
"2022-08-20 00:54:00",3077018,0.1873333,93.72765,4.875249,0.05182878,0.26,0,0.3493333,32.8709,5.758674,0.05615059,0.42,0,-999,0,18.4,97.8,18.51,18.49,0.2,0,0,19.49,13.26,0.2,101.6224,3.163,3.163,3.161,100,0,0,0,204.5,38.17,38.17
"2022-08-20 00:55:00",3077019,0.322,88.46664,1.543404,0.02737396,0.36,0,0.426,46.99969,2.421885,0.03738092,0.49,0,-999,0,18.4,97.5,18.51,18.49,0.2,0,0,19.49,13.26,0.2,101.617,3.162,3.163,3.161,100,0,0,0,204.5,38.17,38.17
"2022-08-20 00:56:00",3077020,0.398,87.06656,3.17185,0.0183303,0.44,0,0.438,49.33411,2.270073,0.02372059,0.48,0,-999,0,18.4,97.4,18.51,18.5,0.2,0,0,19.5,13.26,0.2,101.617,3.161,3.163,3.16,100,0,0,0,204.5,38.18,38.17
"2022-08-20 00:57:00",3077021,0.4133333,88.66658,2.573366,0.01776388,0.45,0,0.4293334,54.00018,2.63291,0.01181336,0.45,0,-999,0,18.4,97.5,18.52,18.49,0.2,0,0,19.52,13.26,0.2,101.6153,3.161,3.163,3.161,100,0,0,0,204.5,38.17,38.17
"2022-08-20 00:58:00",3077022,0.384,99.19932,4.035779,0.01624807,0.42,0,0.412,59.40035,2.153803,0.01469694,0.44,0,-999,0,18.4,97.5,18.52,18.49,0.2,0,0,19.52,13.26,0.2,101.6207,3.161,3.163,3.161,100,0,0,0,204.5,38.18,38.17
"2022-08-20 00:59:00",3077023,0.3573333,112.5948,6.912459,0.04218478,0.44,0,0.3333333,61.9996,2.682971,0.03319973,0.41,0,-999,0,18.4,97.7,18.52,18.49,0.2,0,0,19.52,13.26,0.2,101.6166,3.161,3.161,3.159,100,0,0,0,204.5,38.17,38.17
"2022-08-20 01:00:00",3077024,0.2146667,138.529,5.070294,0.0162754,0.24,0,0.2166667,60.39588,5.758589,0.02299759,0.26,0,-999,0,18.41,97.7,18.53,18.49,0.2,0,0,19.52,13.27,0.2,101.6175,3.163,3.163,3.161,100,0,0,0,204.5,38.18,38.17
"2022-08-20 01:01:00",3077025,0.284,143.8674,2.362262,0.02984405,0.34,0,0.2233333,88.5366,10.29587,0.01659987,0.27,0,-999,0,18.44,97.6,18.52,18.49,0.2,0,0,19.55,13.26,0.2,101.6208,3.161,3.163,3.161,100,0,0,0,204.5,38.18,38.17
"2022-08-20 01:02:00",3077026,0.3313333,135.2044,7.465775,0.02679967,0.38,0,0.334,99.59998,0.8797377,0.0302875,0.38,0,-999,0,18.49,97.4,18.53,18.49,0.2,0,0,19.55,13.25,0.2,101.6195,3.161,3.161,3.16,100,0,0,0,204.5,38.18,38.17
"2022-08-20 01:03:00",3077027,0.392,125.3385,4.640411,0.04519587,0.45,0,0.414,105.8682,4.302534,0.01083205,0.43,0,-999,0,18.49,97.3,18.56,18.49,0.2,0,0,19.55,13.25,0.2,101.6215,3.163,3.163,3.159,100,0,0,0,204.5,38.17,38.17
"2022-08-20 01:04:00",3077028,0.4266666,124.8019,6.076871,0.03875851,0.49,0,0.434,113.8664,2.276235,0.01781385,0.47,0,-999,0,18.5,97.2,18.56,18.52,0.2,0,0,19.55,13.26,0.2,101.6251,3.163,3.163,3.163,100,0,0,0,204.5,38.18,38.17
"2022-08-20 01:05:00",3077029,0.434,122.2007,7.135684,0.04572381,0.5,0,0.496,118.5333,2.825191,0.04469153,0.55,0,-999,0,18.5,97.3,18.56,18.52,0.2,0,0,19.55,13.25,0.2,101.6164,3.161,3.164,3.161,100,0,0,0,204.5,38.17,38.17
"2022-08-20 01:06:00",3077030,0.4753333,132.2033,5.163819,0.05149325,0.56,0,0.5213333,124.3332,2.180555,0.008844324,0.53,0,-999,0,18.5,97.4,18.56,18.53,0.2,0,0,19.55,13.25,0.2,101.6162,3.161,3.162,3.159,100,0,0,0,204.5,38.18,38.18
"2022-08-20 01:07:00",3077031,0.5486667,141.2691,2.975207,0.0412903,0.62,0,0.4746666,138.5381,6.659202,0.02390722,0.52,0,-999,0,18.5,97.5,18.57,18.57,0.2,0,0,19.55,13.26,0.2,101.6216,3.165,3.165,3.161,100,0,0,0,204.5,38.18,38.18
"2022-08-20 01:08:00",3077032,0.5333333,146.6004,2.443909,0.0282056,0.6,0,0.5166667,136.9989,3.501989,0.02772884,0.56,0,-999,0,18.5,97.7,18.59,18.58,0.2,0,0,19.55,13.26,0.2,101.6152,3.163,3.165,3.163,100,0,0,0,204.5,38.18,38.18
"2022-08-20 01:09:00",3077033,0.5473334,146.3999,1.781145,0.03957553,0.62,0,0.4613333,141.5998,3.498177,0.04047495,0.54,0,-999,0,18.5,98,18.6,18.58,0.2,0,0,19.55,13.26,0.2,101.6181,3.163,3.165,3.163,100,0,0,0,204.5,38.17,38.18
"2022-08-20 01:10:00",3077034,0.6339999,144.2002,1.469395,0.03929376,0.7,0,0.5073333,141.2036,3.882058,0.03940671,0.6,0,-999,0,18.5,97.9,18.6,18.58,0.2,0,0,19.57,13.26,0.2,101.6215,3.163,3.165,3.163,100,0,0,0,204.5,38.17,38.18
"2022-08-20 01:11:00",3077035,0.702,141.9335,1.525864,0.04430199,0.79,0,0.5773333,138.4011,3.281763,0.03234537,0.62,0,-999,0,18.5,97.8,18.59,18.58,0.2,0,0,19.57,13.26,0.2,101.6204,3.161,3.163,3.161,100,0,0,0,204.5,38.18,38.18
"2022-08-20 01:12:00",3077036,0.628,142.1333,0.9567826,0.036,0.68,0,0.5853334,138.8005,2.343696,0.05018188,0.65,0,-999,0,18.5,97.7,18.58,18.58,0.2,0,0,19.57,13.26,0.2,101.6201,3.162,3.163,3.161,100,0,0,0,204.5,38.17,38.18
"2022-08-20 01:13:00",3077037,0.642,132.3333,2.624561,0.03059411,0.69,0,0.5506667,135.1338,3.593272,0.05697563,0.67,0,-999,0,18.5,97.7,18.57,18.57,0.2,0,0,19.57,13.26,0.2,101.6218,3.161,3.162,3.161,100,0,0,0,204.5,38.18,38.18
"2022-08-20 01:14:00",3077038,0.6300001,131.4655,3.422175,0.057038,0.75,0,0.5526667,132.5332,2.472482,0.03991101,0.61,0,-999,0,18.5,97.6,18.57,18.57,0.2,0,0,19.57,13.25,0.2,101.6161,3.159,3.161,3.159,100,0,0,0,204.5,38.18,38.18
"2022-08-20 01:15:00",3077039,0.514,127.5341,3.261802,0.08081254,0.61,0,0.442,131.3996,2.916379,0.04277071,0.55,0,-999,0,18.5,97.5,18.57,18.57,0.2,0,0,19.58,13.27,0.2,101.6184,3.161,3.161,3.159,100,0,0,0,204.5,38.18,38.18
"2022-08-20 01:16:00",3077040,0.4113333,130.0002,3.326343,0.05389702,0.5,0,0.3693333,127.1333,1.087286,0.02080598,0.41,0,-999,0,18.5,97.6,18.56,18.56,0.2,0,0,19.59,13.26,0.2,101.6208,3.159,3.161,3.159,100,0,0,0,204.5,38.18,38.18
"2022-08-20 01:17:00",3077041,0.3313333,121.1733,9.07185,0.03403267,0.38,0,0.338,122.7996,2.560925,0.01514375,0.36,0,-999,0,18.5,97.7,18.57,18.56,0.2,0,0,19.58,13.26,0.2,101.6183,3.159,3.161,3.158,100,0,0,0,204.5,38.18,38.18
"2022-08-20 01:18:00",3077042,0.2586667,102.6016,5.055853,0.03947432,0.31,0,0.3013333,116.6666,1.490624,0.02061284,0.33,0,-999,0,18.5,97.7,18.57,18.55,0.2,0,0,19.59,13.26,0.2,101.6157,3.16,3.161,3.159,100,0,0,0,204.5,38.18,38.18
"2022-08-20 01:19:00",3077043,0.1893334,79.72919,7.493221,0.03021405,0.25,0,0.216,118.8666,2.334064,0.02751969,0.26,0,-999,0,18.5,97.6,18.57,18.56,0.2,0,0,19.59,13.26,0.2,101.6155,3.159,3.161,3.159,100,0,0,0,204.5,38.18,38.18
"2022-08-20 01:20:00",3077044,0.1093333,39.67718,22.28654,0.02839405,0.16,0,0.08533333,105.4743,7.106783,0.03518839,0.16,0,-999,0,18.5,97.4,18.56,18.55,0.2,0,0,19.6,13.26,0.2,101.6194,3.16,3.16,3.158,100,0,0,0,204.5,38.17,38.18
"2022-08-20 01:21:00",3077045,0.03866667,23.94667,28.65511,0.01746107,0.09,0,0.01666667,11.18836,80.53342,0.01299573,0.04,0,-999,0,18.5,97.3,18.57,18.55,0.2,0,0,19.6,13.27,0.2,101.6195,3.159,3.161,3.159,100,0,0,0,204.5,38.18,38.18
"2022-08-20 01:22:00",3077046,0.08933333,316.1699,17.37386,0.02407396,0.14,0,0.102,287.3006,9.358708,0.04230052,0.17,0,-999,0,18.5,97.2,18.56,18.55,0.2,0,0,19.6,13.27,0.2,101.6223,3.159,3.16,3.159,100,0,0,0,204.5,38.17,38.18
"2022-08-20 01:23:00",3077047,0.1646667,313.1336,2.654701,0.01024153,0.18,0,0.1946667,305.6672,4.921035,0.02578544,0.27,0,-999,0,18.5,97.1,18.56,18.54,0.2,0,0,19.6,13.26,0.2,101.6216,3.159,3.16,3.158,100,0,0,0,204.5,38.17,38.18
"2022-08-20 01:24:00",3077048,0.2413333,318.7317,4.326555,0.05572153,0.31,0,0.274,315.7342,3.295004,0.007118049,0.29,0,-999,0,18.5,97.1,18.55,18.52,0.2,0,0,19.6,13.25,0.2,101.622,3.157,3.159,3.157,100,0,0,0,204.5,38.17,38.18
"2022-08-20 01:25:00",3077049,0.3086666,330.2074,7.691154,0.02472965,0.36,0,0.2906666,329.6695,4.68492,0.04358389,0.38,0,-999,0,18.5,97.2,18.55,18.51,0.2,0,0,19.6,13.26,0.2,101.62,3.158,3.159,3.157,100,0,0,0,204.5,38.18,38.18
"2022-08-20 01:26:00",3077050,0.3713333,339.5326,4.316781,0.02552558,0.41,0,0.498,325.8654,3.116343,0.04982636,0.57,0,-999,0,18.49,97.5,18.55,18.52,0.2,0,0,19.6,13.26,0.2,101.6171,3.159,3.159,3.157,100,0,0,0,204.5,38.17,38.18
"2022-08-20 01:27:00",3077051,0.4313333,336.9316,3.433707,0.02061283,0.48,0,0.414,347.9401,8.20804,0.02576819,0.48,0,-999,0,18.49,97.6,18.56,18.52,0.2,0,0,19.6,13.25,0.2,101.6202,3.158,3.16,3.155,100,0,0,0,204.5,38.17,38.18
"2022-08-20 01:28:00",3077052,0.4613333,335.2007,6.303718,0.03593821,0.53,0,0.44,355.6687,2.723209,0.02097617,0.48,0,-999,0,18.44,97.5,18.55,18.52,0.2,0,0,19.6,13.25,0.2,101.6149,3.158,3.159,3.157,100,0,0,0,204.5,38.17,38.18
"2022-08-20 01:29:00",3077053,0.568,334.2028,4.100658,0.02663331,0.62,0,0.4746667,353.8667,0.8841757,0.01024153,0.49,0,-999,0,18.41,97.5,18.53,18.49,0.2,0,0,19.6,13.25,0.2,101.6164,3.155,3.158,3.155,100,0,0,0,204.5,38.17,38.18
"2022-08-20 01:30:00",3077054,0.6033334,330.9986,3.846395,0.03608632,0.67,0,0.542,349.1995,2.688043,0.04460194,0.63,0,-999,0,18.4,97.5,18.5,18.49,0.2,0,0,19.6,13.26,0.2,101.6163,3.161,3.161,3.157,100,0,0,0,204.5,38.17,38.17
"2022-08-20 01:31:00",3077055,0.7153333,336.068,3.085899,0.03499841,0.77,0,0.6900001,349.1999,2.071905,0.06841053,0.79,0,-999,0,18.41,97.5,18.54,18.51,0.2,0,0,19.59,13.26,0.2,101.6161,3.159,3.161,3.159,100,0,0,0,204.5,38.18,38.17
"2022-08-20 01:32:00",3077056,0.7986667,341,2.449395,0.02825283,0.85,0,0.8359999,347.7334,1.236296,0.05109469,0.91,0,-999,0,18.47,97.6,18.56,18.54,0.2,0,0,19.59,13.25,0.2,101.614,3.159,3.159,3.157,100,0,0,0,204.5,38.18,38.17
"2022-08-20 01:33:00",3077057,0.76,342.2667,1.691903,0.0206559,0.79,0,0.8713334,347,1.591551,0.03303869,0.92,0,-999,0,18.43,97.5,18.55,18.51,0.2,0,0,19.58,13.26,0.2,101.6084,3.159,3.16,3.158,100,0,0,0,204.5,38.17,38.17
"2022-08-20 01:34:00",3077058,0.684,337.9358,4.137847,0.02576819,0.72,0,0.7666666,351.2001,1.514467,0.03003701,0.81,0,-999,0,18.4,97.5,18.51,18.49,0.2,0,0,19.57,13.26,0.2,101.6046,3.159,3.159,3.158,100,0,0,0,204.5,38.18,38.17
"2022-08-20 01:35:00",3077059,0.564,320.3335,1.885546,0.02961981,0.62,0,0.6346666,354.6667,1.246859,0.04616877,0.7,0,-999,0,18.4,97.5,18.51,18.49,0.2,0,0,19.57,13.26,0.2,101.6065,3.158,3.159,3.157,100,0,0,0,204.5,38.17,38.17
"2022-08-20 01:36:00",3077060,0.5693333,314.1335,4.543529,0.03395422,0.62,0,0.5546667,352.8,2.071953,0.02753583,0.6,0,-999,0,18.4,97.6,18.54,18.5,0.2,0,0,19.57,13.25,0.2,101.6001,3.157,3.159,3.157,100,0,0,0,204.5,38.17,38.17
"2022-08-20 01:37:00",3077061,0.5493334,310.0627,5.142313,0.03395422,0.62,0,0.464,353.067,2.64468,0.008793938,0.48,0,-999,0,18.43,97.6,18.56,18.52,0.2,0,0,19.56,13.26,0.2,101.6014,3.157,3.159,3.157,100,0,0,0,204.5,38.17,38.17
"2022-08-20 01:38:00",3077062,0.5653334,318.9424,5.611741,0.05931461,0.73,0,0.5100001,352.267,3.19277,0.01211059,0.53,0,-999,0,18.45,97.6,18.55,18.53,0.2,0,0,19.55,13.26,0.2,101.5987,3.159,3.159,3.157,100,0,0,0,204.5,38.17,38.17
"2022-08-20 01:39:00",3077063,0.5426667,327.1328,3.774324,0.02999259,0.59,0,0.5666667,359.9323,3.335618,0.01349896,0.59,0,-999,0,18.45,97.5,18.54,18.53,0.2,0,0,19.55,13.26,0.2,101.5996,3.159,3.159,3.158,100,0,0,0,204.5,38.17,38.17
"2022-08-20 01:40:00",3077064,0.5346667,341.5982,4.976317,0.02445858,0.59,0,0.5946667,8.866599,2.155985,0.01024154,0.61,0,-999,0,18.42,97.4,18.51,18.5,0.2,0,0,19.55,13.26,0.2,101.5963,3.159,3.159,3.157,100,0,0,0,204.5,38.18,38.17
"2022-08-20 01:41:00",3077065,0.598,357.0038,3.947803,0.04489988,0.68,0,0.5953333,10.93327,1.611113,0.008055382,0.61,0,-999,0,18.4,97.3,18.51,18.5,0.2,0,0,19.55,13.26,0.2,101.5965,3.159,3.159,3.158,100,0,0,0,204.5,38.17,38.17
"2022-08-20 01:42:00",3077066,0.668,354.7329,2.48895,0.01275409,0.69,0,0.55,10.2666,2.14364,0.0303315,0.59,0,-999,0,18.4,97.3,18.51,18.5,0.2,0,0,19.53,13.26,0.2,101.591,3.159,3.16,3.157,100,0,0,0,204.5,38.17,38.17
"2022-08-20 01:43:00",3077067,0.706,351.5332,1.407961,0.01356466,0.73,0,0.4853333,3.598181,3.573422,0.02093375,0.52,0,-999,0,18.4,97.6,18.48,18.49,0.2,0,0,19.52,13.26,0.2,101.5962,3.16,3.161,3.158,100,0,0,0,204.5,38.18,38.17
"2022-08-20 01:44:00",3077068,0.722,344.3326,3.571061,0.01326651,0.75,0,0.4026667,356.8667,1.856873,0.0337573,0.46,0,-999,0,18.4,97.6,18.47,18.44,0.2,0,0,19.51,13.26,0.2,101.5981,3.161,3.161,3.159,100,0,0,0,204.5,38.17,38.17
"2022-08-20 01:45:00",3077069,0.7193334,340.4668,2.36276,0.01181338,0.74,0,0.3486667,3.999287,4.273187,0.0260427,0.39,0,-999,0,18.39,97.5,18.42,18.43,0.2,0,0,19.49,13.26,0.2,101.5983,3.161,3.162,3.159,100,0,0,0,204.5,38.17,38.17